Gustavus, AK

7:00 PM AKST on February 20, 2018 (GMT -0900)
Gustavus

Weather History for PAGS - March, 2014

Change the Weather History Date:

Monday, March 3, 2014

  Actual Average Record
Temperature  
Mean Temperature 19 °F -  
Max Temperature 30 °F 36 °F 46 °F (2005)
Min Temperature 8 °F 27 °F -10 °F (1955)
Degree Days  
Heating Degree Days 46    
Moisture  
Dew Point -6 °F    
Average Humidity 29    
Maximum Humidity 67    
Minimum Humidity 19    
Precipitation  
Precipitation 0.00 in - - ()
Sea Level Pressure  
Sea Level Pressure 29.90 in    
Wind  
Wind Speed 6 mph (NE)    
Max Wind Speed 16 mph    
Max Gust Speed 23 mph    
Visibility 10 miles    
Events      
Averages and records for this station are not official NWS values.
T = Trace of Precipitation, MM = Missing Value Source: NWS Daily Summary

Daily Weather History Graph

Daily Weather History Graph

Search for Another Location

Airport or City:

Trip Planner

Search our weather history database for the weather conditions in past years. The results will help you decide how hot, cold, wet, or windy it might be!

Date:

Astronomy

Mar. 03, 2014 Rise Set
Actual Time 6:52 AM AKST 5:38 PM AKST
Civil Twilight 6:12 AM AKST 6:18 PM AKST
Nautical Twilight 5:26 AM AKST 7:04 PM AKST
Astronomical Twilight 4:39 AM AKST 7:51 PM AKST
Moon 7:23 AM AKST (3/3) 9:40 PM AKST (3/3)
Length of Visible Light 12h 05m
Length of Day
10h 46m
Waxing Crescent, 9% of the Moon is Illuminated
Mar 3
Waxing Crescent
Mar 8
First Quarter
Mar 16
Full
Mar 23
Last Quarter
Mar 30
New

Hourly Weather History & Observations

Time (AKST) Temp. Windchill Dew Point Humidity Pressure Visibility Wind Dir Wind Speed Gust Speed Precip Events Conditions
12:16 AM 28.4 °F 21.2 °F -9.4 °F 19% 29.87 in 10.0 mi NNW 6.9 mph - N/A   Clear
12:36 AM 28.4 °F 24.6 °F -9.4 °F 19% 29.87 in 10.0 mi NW 3.5 mph - N/A   Clear
12:56 AM 24.8 °F 20.5 °F -9.4 °F 22% 29.87 in 10.0 mi North 3.5 mph - N/A   Clear
1:16 AM 28.4 °F 22.2 °F -7.6 °F 21% 29.86 in 10.0 mi West 5.8 mph - N/A   Clear
1:36 AM 26.6 °F 20.0 °F -9.4 °F 21% 29.86 in 10.0 mi NNW 5.8 mph - N/A   Clear
1:56 AM 26.6 °F 18.2 °F -9.4 °F 21% 29.86 in 10.0 mi NNW 8.1 mph - N/A   Clear
2:16 AM 26.6 °F 18.2 °F -7.6 °F 22% 29.85 in 10.0 mi NNW 8.1 mph - N/A   Clear
2:36 AM 26.6 °F 14.3 °F -9.4 °F 21% 29.85 in 10.0 mi NNE 16.1 mph 23.0 mph N/A   Clear
2:56 AM 28.4 °F 19.1 °F -9.4 °F 19% 29.85 in 10.0 mi NE 10.4 mph 18.4 mph N/A   Clear
3:16 AM 28.4 °F 19.1 °F -9.4 °F 19% 29.84 in 10.0 mi NE 10.4 mph - N/A   Clear
3:36 AM 28.4 °F 19.1 °F -9.4 °F 19% 29.84 in 10.0 mi NE 10.4 mph - N/A   Clear
3:56 AM 28.4 °F 20.4 °F -9.4 °F 19% 29.84 in 10.0 mi NE 8.1 mph 16.1 mph N/A   Clear
4:16 AM 28.4 °F 21.2 °F -9.4 °F 19% 29.84 in 10.0 mi NE 6.9 mph - N/A   Clear
4:36 AM 26.6 °F 20.0 °F -9.4 °F 21% 29.85 in 10.0 mi NE 5.8 mph - N/A   Clear
4:56 AM 26.6 °F 19.1 °F -9.4 °F 21% 29.85 in 10.0 mi ESE 6.9 mph - N/A   Clear
5:16 AM 24.8 °F 19.1 °F -9.4 °F 22% 29.85 in 10.0 mi ENE 4.6 mph - N/A   Clear
5:36 AM 24.8 °F 19.1 °F -9.4 °F 22% 29.86 in 10.0 mi ENE 4.6 mph - N/A   Clear
5:56 AM 23.0 °F 14.7 °F -9.4 °F 24% 29.85 in 10.0 mi ENE 6.9 mph - N/A   Clear
6:16 AM 21.2 °F - -9.4 °F 26% 29.86 in 10.0 mi Calm Calm - N/A   Clear
6:36 AM 21.2 °F 12.6 °F -7.6 °F 28% 29.85 in 10.0 mi NNE 6.9 mph - N/A   Clear
6:56 AM 15.8 °F 10.2 °F -9.4 °F 32% 29.86 in 10.0 mi South 3.5 mph - N/A   Clear
7:16 AM 19.4 °F - -5.8 °F 33% 29.86 in 10.0 mi Calm Calm - N/A   Clear
7:36 AM 15.8 °F - -7.6 °F 35% 29.87 in 10.0 mi Calm Calm - N/A   Clear
7:56 AM 17.6 °F 12.3 °F -2.2 °F 42% 29.87 in 10.0 mi NNE 3.5 mph - N/A   Clear
8:16 AM 24.8 °F 16.9 °F -4.0 °F 28% 29.87 in 10.0 mi NNE 6.9 mph - N/A   Clear
8:36 AM 26.6 °F 20.0 °F -7.6 °F 22% 29.87 in 10.0 mi NNE 5.8 mph - N/A   Clear
8:56 AM 26.6 °F 20.0 °F -7.6 °F 22% 29.88 in 10.0 mi ENE 5.8 mph - N/A   Clear
9:16 AM 28.4 °F 22.2 °F -9.4 °F 19% 29.88 in 10.0 mi ENE 5.8 mph 16.1 mph N/A   Clear
9:36 AM 28.4 °F 23.3 °F -9.4 °F 19% 29.88 in 10.0 mi NE 4.6 mph - N/A   Clear
9:56 AM 28.4 °F 19.1 °F -9.4 °F 19% 29.88 in 10.0 mi North 10.4 mph - N/A   Clear
10:16 AM 28.4 °F 22.2 °F -9.4 °F 19% 29.89 in 10.0 mi NE 5.8 mph - N/A   Clear
10:36 AM 28.4 °F 19.7 °F -9.4 °F 19% 29.89 in 10.0 mi NE 9.2 mph - N/A   Clear
10:56 AM 28.4 °F 19.7 °F -9.4 °F 19% 29.89 in 10.0 mi ENE 9.2 mph - N/A   Clear
11:16 AM 28.4 °F 19.7 °F -9.4 °F 19% 29.89 in 10.0 mi NE 9.2 mph 18.4 mph N/A   Clear
11:36 AM 28.4 °F 18.0 °F -9.4 °F 19% 29.89 in 10.0 mi NE 12.7 mph 17.3 mph N/A   Clear
11:56 AM 28.4 °F 18.0 °F -9.4 °F 19% 29.89 in 10.0 mi NE 12.7 mph 16.1 mph N/A   Clear
12:16 PM 28.4 °F 21.2 °F -7.6 °F 21% 29.89 in 10.0 mi East 6.9 mph - N/A   Clear
12:36 PM 30.2 °F 22.6 °F -7.6 °F 19% 29.89 in 10.0 mi NNE 8.1 mph - N/A   Clear
12:56 PM 30.2 °F 26.7 °F -7.6 °F 19% 29.89 in 10.0 mi ENE 3.5 mph - N/A   Clear
1:16 PM 30.2 °F 24.3 °F -7.6 °F 19% 29.89 in 10.0 mi NE 5.8 mph - N/A   Clear
1:36 PM 30.2 °F 26.7 °F -7.6 °F 19% 29.89 in 10.0 mi ESE 3.5 mph - N/A   Clear
1:56 PM 30.2 °F 21.3 °F -4.0 °F 23% 29.90 in 10.0 mi NE 10.4 mph - N/A   Clear
2:16 PM 30.2 °F 21.3 °F -7.6 °F 19% 29.90 in 10.0 mi NE 10.4 mph - N/A   Clear
2:36 PM 30.2 °F 22.6 °F -5.8 °F 21% 29.90 in 10.0 mi NE 8.1 mph - N/A   Clear
2:56 PM 30.2 °F 21.9 °F -5.8 °F 21% 29.90 in 10.0 mi East 9.2 mph - N/A   Clear
3:16 PM 30.2 °F 22.6 °F -5.8 °F 21% 29.90 in 10.0 mi ENE 8.1 mph - N/A   Clear
3:36 PM 30.2 °F 24.3 °F -7.6 °F 19% 29.90 in 10.0 mi East 5.8 mph - N/A   Clear
3:56 PM 28.4 °F 20.4 °F -5.8 °F 23% 29.90 in 10.0 mi ENE 8.1 mph - N/A   Clear
4:16 PM 28.4 °F 21.2 °F -5.8 °F 23% 29.90 in 10.0 mi ENE 6.9 mph - N/A   Clear
4:36 PM 28.4 °F 22.2 °F -7.6 °F 21% 29.91 in 10.0 mi ENE 5.8 mph - N/A   Clear
4:56 PM 28.4 °F - -7.6 °F 21% 29.91 in 10.0 mi Calm Calm - N/A   Clear
5:16 PM 28.4 °F 22.2 °F -7.6 °F 21% 29.91 in 10.0 mi NE 5.8 mph - N/A   Clear
5:36 PM 26.6 °F 20.0 °F -7.6 °F 22% 29.92 in 10.0 mi NE 5.8 mph - N/A   Clear
5:56 PM 26.6 °F 21.2 °F -7.6 °F 22% 29.93 in 10.0 mi East 4.6 mph - N/A   Clear
6:16 PM 26.6 °F - -7.6 °F 22% 29.93 in 10.0 mi Calm Calm - N/A   Clear
6:36 PM 23.0 °F - -5.8 °F 28% 29.94 in 10.0 mi Calm Calm - N/A   Clear
6:56 PM 21.2 °F - -2.2 °F 36% 29.94 in 10.0 mi Calm Calm - N/A   Clear
7:16 PM 21.2 °F - -5.8 °F 30% 29.95 in 10.0 mi Calm Calm - N/A   Clear
7:36 PM 21.2 °F - -4.0 °F 33% 29.96 in 10.0 mi Calm Calm - N/A   Clear
7:56 PM 19.4 °F - -2.2 °F 39% 29.96 in 10.0 mi Calm Calm - N/A   Clear
8:16 PM 17.6 °F 12.3 °F -0.4 °F 45% 29.97 in 10.0 mi NNW 3.5 mph - N/A   Clear
8:36 PM 17.6 °F 12.3 °F 1.4 °F 49% 29.97 in 10.0 mi North 3.5 mph - N/A   Clear
8:56 PM 15.8 °F 10.2 °F -0.4 °F 49% 29.98 in 10.0 mi NNW 3.5 mph - N/A   Clear
9:16 PM 12.2 °F - 1.4 °F 62% 29.99 in 10.0 mi Calm Calm - N/A   Clear
9:36 PM 12.2 °F 4.3 °F 1.4 °F 62% 29.99 in 10.0 mi North 4.6 mph - N/A   Clear
9:56 PM 12.2 °F 2.9 °F -0.4 °F 57% 30.00 in 10.0 mi North 5.8 mph - N/A   Scattered Clouds
10:16 PM 10.4 °F 0.8 °F -0.4 °F 62% 30.00 in 10.0 mi NNW 5.8 mph - N/A   Partly Cloudy
10:36 PM 10.4 °F - -0.4 °F 62% 30.00 in 10.0 mi Calm Calm - N/A   Clear
10:56 PM 10.4 °F - -2.2 °F 57% 30.01 in 10.0 mi Calm Calm - N/A   Clear
11:16 PM 10.4 °F - -0.4 °F 62% 30.01 in 10.0 mi Calm Calm - N/A   Clear
11:36 PM 8.6 °F 2.0 °F -0.4 °F 67% 30.02 in 10.0 mi NNW 3.5 mph - N/A   Clear
11:56 PM 10.4 °F 2.2 °F -2.2 °F 57% 30.02 in 10.0 mi North 4.6 mph - N/A   Clear